DW0268 Weather Reports


time (UTC)temp
C
wind
direction
speed
KPH
gust
KPH
rain 1hr
cm
rain 24hr
cm
rain mn
cm
humidity
%
barometer
mb
20260506233023 14 68 1.6 12.9 0.00 0.94 0.05 75 1017.5
20260506231523 14 46 1.6 8.0 0.00 0.94 0.05 75 1017.2
20260506230019 14 34 0.0 12.9 0.00 0.94 0.05 76 1017.1
20260506224520 14 21 3.2 8.0 0.00 1.19 0.05 75 1016.5
20260506223017 14 45 3.2 9.7 0.00 1.19 0.05 75 1016.3
20260506221516 14 44 3.2 9.7 0.00 1.19 0.05 75 1016.5
20260506220016 14 5 3.2 14.5 0.00 1.19 0.05 73 1017.2
20260506214518 14 28 4.8 16.1 0.00 1.42 0.05 74 1017.7
20260506213012 13 22 3.2 14.5 0.00 1.42 0.05 74 1017.7
20260506211512 13 349 4.8 17.7 0.00 1.42 0.05 76 1017.8
20260506210014 13 75 4.8 14.5 0.00 1.42 0.05 75 1018.1
20260506204509 13 50 3.2 12.9 0.00 1.60 0.05 76 1018.1
20260506203012 13 16 6.4 17.7 0.00 1.60 0.05 74 1018.6
20260506201511 13 28 3.2 12.9 0.00 1.60 0.05 74 1018.5
20260506200011 13 19 3.2 12.9 0.00 1.60 0.05 75 1018.1
20260506194607 13 53 1.6 14.5 0.00 1.65 0.05 75 1018.5
20260506193005 13 22 3.2 8.0 0.00 1.65 0.05 75 1018.2
20260506191506 13 17 8.0 19.3 0.00 1.65 0.05 74 1018.5
20260506190007 13 13 8.0 22.5 0.00 1.65 0.05 74 1018.8
20260506184515 13 39 4.8 16.1 0.00 1.73 0.05 73 1018.5
20260506183107 13 49 4.8 19.3 0.00 1.73 0.05 75 1018.1
20260506181558 13 38 4.8 22.5 0.00 1.73 0.05 75 1017.9
20260506180056 13 360 16.1 25.7 0.00 1.73 0.05 76 1018.1
20260506174601 13 26 6.4 17.7 0.00 1.73 0.05 75 1017.9
20260506173125 12 5 9.7 24.1 0.00 1.73 0.05 77 1018.3
20260506171553 12 5 12.9 27.4 0.00 1.73 0.05 77 1018.9
20260506170052 12 33 12.9 30.6 0.00 1.73 0.05 78 1018.7
20260506164551 12 30 6.4 16.1 0.00 1.73 0.05 77 1018.9
20260506163053 12 41 6.4 20.9 0.00 1.73 0.05 79 1018.1
20260506161548 12 45 9.7 24.1 0.00 1.73 0.05 79 1017.7
20260506160047 12 32 6.4 20.9 0.00 1.73 0.05 80 1018.0
20260506154544 11 41 4.8 22.5 0.00 1.73 0.05 79 1018.5
20260506153044 12 347 11.3 24.1 0.00 1.73 0.05 82 1018.1
20260506151539 11 38 12.9 24.1 0.00 1.73 0.05 83 1017.9
20260506150045 11 355 14.5 20.9 0.00 1.73 0.05 85 1018.4
20260506144553 11 34 17.7 29.0 0.00 1.73 0.05 85 1018.3
20260506143036 10 344 17.7 29.0 0.00 1.73 0.05 86 1017.8
20260506141528 10 53 12.9 20.9 0.00 1.73 0.05 87 1017.9
20260506140040 10 355 8.0 20.9 0.00 1.73 0.05 88 1017.7
20260506134530 10 348 8.0 24.1 0.00 1.83 0.05 89 1017.7
20260506133020 10 18 3.2 20.9 0.00 1.83 0.05 89 1017.1
20260506131527 10 44 4.8 24.1 0.00 1.83 0.05 90 1016.9
20260506130018 9 49 3.2 19.3 0.00 1.83 0.05 90 1017.0
20260506124515 9 65 8.0 17.7 0.00 2.29 0.05 90 1016.5
20260506123019 8 59 4.8 16.1 0.00 2.29 0.05 91 1016.1
20260506121513 8 5 4.8 17.7 0.00 2.29 0.05 91 1016.3
20260506120020 8 19 6.4 20.9 0.00 2.29 0.05 91 1015.9
20260506114517 8 34 3.2 9.7 0.00 2.29 0.05 92 1015.7
20260506113007 8 39 4.8 11.3 0.00 2.29 0.05 92 1015.6
20260506111506 8 49 3.2 14.5 0.00 2.29 0.05 92 1015.4
20260506110004 8 49 4.8 14.5 0.00 2.29 0.05 92 1014.9
20260506104504 8 36 6.4 19.3 0.00 2.29 0.05 92 1015.2
20260506103003 8 41 9.7 25.7 0.00 2.29 0.05 92 1015.1
20260506101602 8 23 9.7 22.5 0.00 2.29 0.05 92 1014.6
20260506100108 8 40 8.0 24.1 0.00 2.29 0.05 92 1014.8
20260506094604 8 13 9.7 24.1 0.00 2.29 0.05 92 1014.5
20260506093055 8 31 17.7 27.4 0.00 2.29 0.05 92 1014.6
20260506091553 8 40 6.4 22.5 0.00 2.29 0.05 93 1014.7
20260506090051 8 47 8.0 25.7 0.00 2.29 0.05 93 1014.7
20260506084552 8 19 9.7 24.1 0.00 2.29 0.05 93 1013.8
20260506083053 9 341 16.1 33.8 0.00 2.29 0.05 93 1013.7
20260506081600 9 351 16.1 30.6 0.00 2.29 0.05 94 1013.5
20260506073038 9 330 9.7 20.9 0.00 2.29 0.05 95 1013.1
20260506071539 9 45 6.4 14.5 0.00 2.29 0.05 95 1013.1
20260506061531 9 338 17.7 30.6 0.03 2.29 0.05 96 1013.7
20260506044515 10 5 11.3 25.7 0.13 2.18 2.18 96 1011.9
20260506043013 10 30 11.3 25.7 0.30 2.11 2.11 95 1011.9
20260506041512 10 5 11.3 33.8 0.33 2.11 2.11 96 1011.7
20260506040010 10 52 12.9 25.7 0.33 2.11 2.11 95 1011.6
20260506034508 10 53 8.0 25.7 0.28 2.06 2.06 95 1011.4
20260506033006 11 45 11.3 30.6 0.00 1.78 1.78 95 1012.0
20260506031615 11 360 20.9 35.4 0.00 1.78 1.78 95 1011.6
20260506030100 11 347 17.7 30.6 0.00 1.78 1.78 96 1011.4
20260506024559 11 336 16.1 32.2 0.03 1.78 1.78 96 1011.2
20260506023101 11 329 14.5 30.6 0.08 1.78 1.78 96 1011.3
20260506021655 12 348 16.1 29.0 0.13 1.78 1.78 97 1011.0
20260506020051 12 326 22.5 29.0 0.15 1.78 1.78 97 1010.7
20260506014549 12 5 17.7 29.0 0.20 1.75 1.75 97 1010.1
20260506013050 12 360 16.1 29.0 0.20 1.70 1.70 97 1009.7
20260506011545 12 5 14.5 25.7 0.15 1.65 1.65 97 1009.0
20260506010054 13 348 12.9 24.1 0.13 1.63 1.63 97 1008.7
20260506004541 13 355 20.9 32.2 0.08 1.55 1.55 97 1008.8
20260506003037 14 346 12.9 24.1 0.08 1.50 1.50 96 1008.5
20260506001534 18 317 11.3 19.3 0.13 1.50 1.50 98 1008.2
20260506000033 18 193 14.5 25.7 0.15 1.50 1.50 98 1007.8
20260505234534 18 175 16.1 24.1 0.20 1.45 1.45 98 1008.3